Regional Weather Roundup
Issued by NWS Charleston, WV

Home | Current Version | Previous Version | Text Only | Print | Product List | Glossary Off
Versions: 1 2 3 4 5 6 7 8 9 10 11 12 13 14 15 16 17 18 19 20 21 22 23 24 25 26 27 28 29 30 31 32 33 34 35 36 37 38 39 40 41 42 43 44 45 46 47 48 49 50

000
ASUS41 KRLX 171010
RWRRLX
West Virginia Regional Weather Roundup
National Weather Service Charleston WV
500 AM EST WED DEC 17 2014

Note: "fair" indicates few or no clouds below 12,000 feet with no
significant weather and/or obstructions to visibility.

WVZ003-171100-
Northern Panhandle of West Virginia

CITY           SKY/WX    TMP DP  RH WIND       PRES   REMARKS
WHEELING       LGT RAIN  37  33  85 W16G28    30.00R
$$

WVZ009-171100-
Northwest West Virginia

CITY           SKY/WX    TMP DP  RH WIND       PRES   REMARKS
PARKERSBURG    CLOUDY    38  33  82 W14G21    30.10R
$$

WVZ006-171100-
Western West Virginia

CITY           SKY/WX    TMP DP  RH WIND       PRES   REMARKS
HUNTINGTON     CLOUDY    38  35  89 W8        30.13R
$$

WVZ015-171100-
West Central West Virginia

CITY           SKY/WX    TMP DP  RH WIND       PRES   REMARKS
CHARLESTON     LGT RAIN  40  36  86 W6        30.09S
$$

WVZ022-031-171100-
North Central West Virginia

CITY           SKY/WX    TMP DP  RH WIND       PRES   REMARKS
CLARKSBURG     CLOUDY    40  36  86 W10G24    30.02S
MORGANTOWN     CLOUDY    40  34  79 W7        30.01R
$$

WVZ025-035-042-045-171100-
Southern West Virginia

CITY           SKY/WX    TMP DP  RH WIND       PRES   REMARKS
BECKLEY        LGT RAIN  37  34  89 W7        30.04S
LOGAN          MIX PCPN  39  37  93 W13       30.09S
BLUEFIELD      CLOUDY    38  34  85 W12G20    30.04S
LEWISBURG      CLOUDY    41  36  81 W8        30.02R
$$

WVZ047-171100-
Northern Mountains of West Virginia

CITY           SKY/WX    TMP DP  RH WIND       PRES   REMARKS
ELKINS         LGT RAIN  38  37  97 W9        30.01S
$$

WVZ052-171100-
Eastern Panhandle of West Virginia

CITY           SKY/WX    TMP DP  RH WIND       PRES   REMARKS
MARTINSBURG    CLOUDY    47  36  65 SW3       29.93S
PETERSBURG     MOCLDY    46  34  64 W6        29.95S
$$


USA.gov is the U.S. government's official web portal to all federal, state and local government web resources and services.